GW1094 Weather Reports


Display with metric or nautical units.
time (UTC)temp
F
wind
direction
speed
MPH
gust
MPH
rain 1hr
in
rain 24hr
in
rain mn
in
humidity
%
barometer
mb
20260831140346 66 152 0.0 0.0 0.00 0.02 0.02 99 4100.4
20260831135844 66 124 0.0 0.0 0.02 0.02 0.02 99 4100.4
20260831135339 66 141 0.0 0.0 0.02 0.02 0.02 99 4100.4
20260831134834 66 132 0.0 0.0 0.02 0.02 0.02 99 4100.4
20260831134331 66 95 0.0 0.0 0.02 0.02 0.02 99 4100.4
20260831133830 66 136 0.0 0.0 0.01 0.01 0.01 99 4100.4
20260831133324 66 128 1.0 1.0 0.01 0.01 0.01 99 4100.4
20260831132819 66 138 0.0 0.0 0.00 0.00 0.00 99 4100.7
20260831132314 66 152 0.0 0.0 0.00 0.00 0.00 99 4100.7
20260831131809 65 154 1.0 1.0 0.00 0.00 0.00 99 4100.7
20260831131305 65 142 0.0 0.0 0.00 0.00 0.00 99 4100.4
20260831130759 65 138 0.0 0.0 0.00 0.00 0.00 99 4100.7
20260831130254 65 140 0.0 1.0 0.00 0.00 0.00 99 4100.7
20260831125753 65 146 0.0 0.0 0.00 0.00 0.00 99 4100.4
20260831125249 65 117 0.0 1.0 0.00 0.00 0.00 99 4100.0
20260831124744 65 115 0.0 0.0 0.00 0.00 0.00 99 4100.4
20260831124241 65 124 0.0 0.0 0.00 0.00 0.00 99 4100.4
20260831123740 65 139 0.0 0.0 0.00 0.00 0.00 99 4100.4
20260831123239 65 132 0.0 1.0 0.00 0.00 0.00 99 4100.4
20260831122734 65 150 0.0 0.0 0.00 0.00 0.00 99 4100.4
20260831122230 65 129 0.0 0.0 0.00 0.00 0.00 99 4100.4
20260831121728 65 119 1.0 1.0 0.00 0.00 0.00 99 4100.4
20260831121225 65 138 0.0 0.0 0.00 0.00 0.00 99 4100.0
20260831120720 65 104 0.0 0.0 0.00 0.00 0.00 99 4100.0
20260831120215 65 123 0.0 1.0 0.00 0.00 0.00 99 4100.0
20260831115711 65 125 0.0 0.0 0.00 0.00 0.00 99 4099.7
20260831115207 65 130 0.0 1.0 0.00 0.00 0.00 99 4099.7
20260831114706 65 133 1.0 1.0 0.00 0.00 0.00 99 4099.4
20260831114205 65 106 0.0 1.0 0.00 0.00 0.00 99 4099.4
20260831113701 65 160 0.0 1.0 0.00 0.00 0.00 99 4099.4
20260831113155 64 130 0.0 0.0 0.00 0.00 0.00 99 4099.4
20260831112654 64 238 1.0 2.0 0.00 0.00 0.00 99 4099.0
20260831112150 64 137 0.0 0.0 0.00 0.00 0.00 99 4099.0
20260831111646 64 144 1.0 1.0 0.00 0.00 0.00 99 4099.4
20260831111142 64 115 0.0 0.0 0.00 0.00 0.00 99 4099.4
20260831110637 64 158 0.0 0.0 0.00 0.00 0.00 99 4099.0
20260831110132 64 123 1.0 2.0 0.00 0.00 0.00 99 4099.4
20260831105631 64 131 0.0 0.0 0.00 0.00 0.00 99 4099.7
20260831105126 64 125 0.0 0.0 0.00 0.00 0.00 99 4099.7
20260831104622 64 129 0.0 0.0 0.00 0.00 0.00 99 4099.7
20260831104118 64 136 0.0 0.0 0.00 0.00 0.00 99 4100.0
20260831103613 64 135 0.0 0.0 0.00 0.00 0.00 99 4100.0
20260831103108 64 101 0.0 0.0 0.00 0.00 0.00 99 4100.4
20260831102603 64 137 0.0 0.0 0.00 0.00 0.00 99 4100.4
20260831102058 64 121 0.0 0.0 0.00 0.00 0.00 99 4100.4
20260831101557 64 132 0.0 0.0 0.00 0.00 0.00 99 4100.7
20260831101054 64 144 0.0 0.0 0.00 0.00 0.00 99 4100.7
20260831100549 64 118 0.0 0.0 0.00 0.00 0.00 99 4101.1
20260831100045 64 142 0.0 0.0 0.00 0.00 0.00 99 4101.1
20260831095543 64 123 0.0 0.0 0.00 0.00 0.00 99 4100.7
20260831095038 64 119 0.0 1.0 0.00 0.00 0.00 99 4101.1
20260831094535 64 115 0.0 0.0 0.00 0.00 0.00 99 4101.1
20260831094030 64 106 0.0 0.0 0.00 0.00 0.00 99 4101.1
20260831093525 64 100 0.0 0.0 0.00 0.00 0.00 99 4101.1
20260831093021 64 127 0.0 0.0 0.00 0.00 0.00 99 4101.1
20260831092517 64 133 0.0 1.0 0.00 0.00 0.00 99 4101.4
20260831092013 64 178 0.0 0.0 0.00 0.00 0.00 99 4101.1
20260831091507 64 111 0.0 0.0 0.00 0.00 0.00 99 4101.1
20260831091003 64 78 1.0 1.0 0.00 0.00 0.00 99 4101.4
20260831090458 64 95 1.0 2.0 0.00 0.00 0.00 99 4101.1
20260831085954 64 142 0.0 0.0 0.00 0.00 0.00 99 4101.1
20260831085449 64 125 0.0 0.0 0.00 0.00 0.00 99 4101.4
20260831084949 64 132 0.0 0.0 0.00 0.00 0.00 99 4101.1
20260831084445 64 109 0.0 0.0 0.00 0.00 0.00 99 4101.4
20260831083942 64 141 0.0 0.0 0.00 0.00 0.00 99 4101.1
20260831083436 64 130 0.0 0.0 0.00 0.00 0.00 99 4101.1
20260831082936 64 124 1.0 1.0 0.00 0.00 0.00 99 4101.4
20260831082435 64 122 0.0 0.0 0.00 0.00 0.00 99 4101.4
20260831081931 64 103 0.0 0.0 0.00 0.00 0.00 99 4101.4
20260831081427 64 112 0.0 0.0 0.00 0.00 0.00 99 4101.4
20260831080923 64 134 0.0 0.0 0.00 0.00 0.00 99 4101.4
20260831080417 64 159 0.0 0.0 0.00 0.00 0.00 99 4101.4
20260831075913 64 28 0.0 2.0 0.00 0.00 0.00 99 4101.1
20260831075408 64 155 0.0 0.0 0.00 0.00 0.00 99 4101.1
20260831074903 64 147 0.0 0.0 0.00 0.00 0.00 99 4101.1
20260831074402 64 138 0.0 0.0 0.00 0.00 0.00 99 4101.1
20260831073857 64 104 0.0 0.0 0.00 0.00 0.00 99 4101.1
20260831073356 64 136 0.0 0.0 0.00 0.00 0.00 99 4100.7
20260831072852 64 132 0.0 0.0 0.00 0.00 0.00 99 4100.7
20260831072347 64 131 0.0 0.0 0.00 0.00 0.00 99 4100.7
20260831071843 64 118 0.0 0.0 0.00 0.00 0.00 99 4100.7
20260831071342 64 106 1.0 1.0 0.00 0.00 0.00 99 4101.1
20260831070837 64 144 0.0 0.0 0.00 0.00 0.00 99 4100.7
20260831070336 64 140 0.0 0.0 0.00 0.00 0.00 99 4100.7
20260831065836 64 136 0.0 0.0 0.00 0.00 0.00 99 4100.7
20260831065333 64 128 0.0 0.0 0.00 0.00 0.00 99 4101.1
20260831064829 64 128 0.0 0.0 0.00 0.00 0.00 99 4101.1
20260831064324 64 127 0.0 0.0 0.00 0.00 0.00 99 4101.1
20260831063821 64 139 0.0 0.0 0.00 0.00 0.00 99 4101.1
20260831063320 64 168 0.0 0.0 0.00 0.00 0.00 99 4101.1
20260831062815 64 127 0.0 0.0 0.00 0.00 0.00 99 4101.1
20260831062310 64 100 1.0 1.0 0.00 0.00 0.00 99 4101.1
20260831061809 64 149 0.0 0.0 0.00 0.00 0.00 99 4101.4
20260831061303 64 166 0.0 0.0 0.00 0.00 0.00 99 4101.1
20260831060759 64 125 0.0 0.0 0.00 0.00 0.00 99 4101.4
20260831060259 64 144 0.0 0.0 0.00 0.00 0.00 99 4101.4
20260831055758 64 139 0.0 0.0 0.00 0.00 0.00 99 4101.4
20260831055253 64 128 0.0 0.0 0.00 0.00 0.00 99 4101.7
20260831054748 64 108 0.0 0.0 0.00 0.00 0.00 99 4101.4
20260831054243 64 133 0.0 0.0 0.00 0.00 0.00 99 4101.4
20260831053742 64 114 0.0 0.0 0.00 0.00 0.00 99 4101.4
20260831053241 64 114 0.0 0.0 0.00 0.00 0.00 99 4101.4
20260831052742 64 141 0.0 0.0 0.00 0.00 0.00 99 4101.4
20260831052241 64 133 0.0 0.0 0.00 0.00 0.00 99 4101.4
20260831051739 64 99 0.0 0.0 0.00 0.00 0.00 99 4101.7
20260831051238 64 105 0.0 0.0 0.00 0.00 0.00 99 4101.4
20260831050733 64 68 0.0 0.0 0.00 0.00 0.00 99 4101.7
20260831050231 64 126 0.0 0.0 0.00 0.00 0.00 99 4101.7
20260831045726 63 222 1.0 1.0 0.00 0.00 0.00 99 4101.7
20260831045221 63 128 0.0 0.0 0.00 0.00 0.00 99 4101.4
20260831044716 63 149 0.0 0.0 0.00 0.00 0.00 99 4101.7
20260831044211 63 143 0.0 0.0 0.00 0.00 0.00 99 4101.1
20260831043707 63 120 0.0 0.0 0.00 0.00 0.00 99 4101.4
20260831043202 63 118 0.0 0.0 0.00 0.00 0.00 99 4101.4
20260831042701 63 132 0.0 0.0 0.00 0.00 0.00 99 4101.4
20260831042156 63 135 0.0 0.0 0.00 0.00 0.00 99 4101.4
20260831041651 63 128 0.0 0.0 0.00 0.00 0.00 99 4101.4
20260831041150 63 103 1.0 1.0 0.00 0.00 0.00 99 4101.4
20260831040646 63 135 0.0 0.0 0.00 0.00 0.00 99 4101.4
20260831040144 63 131 0.0 0.0 0.00 0.00 0.00 99 4101.7
20260831035643 64 127 0.0 0.0 0.01 0.16 0.16 99 4101.7
20260831035138 64 123 0.0 0.0 0.01 0.16 0.16 99 4101.7
20260831034636 64 118 1.0 2.0 0.01 0.16 0.16 99 4101.7
20260831034132 64 128 0.0 1.0 0.01 0.16 0.16 99 4101.7
20260831033628 64 134 0.0 0.0 0.01 0.16 0.16 99 4101.7
20260831033123 64 138 0.0 0.0 0.01 0.16 0.16 99 4101.4
20260831032622 64 143 0.0 0.0 0.01 0.16 0.16 99 4101.4
20260831032119 64 132 0.0 0.0 0.01 0.16 0.16 99 4101.7
20260831031619 64 116 0.0 0.0 0.00 0.15 0.15 99 4102.1
20260831031118 64 131 0.0 0.0 0.00 0.15 0.15 99 4101.7
20260831030617 64 126 0.0 0.0 0.00 0.15 0.15 99 4102.1
20260831030116 64 114 0.0 0.0 0.00 0.15 0.15 99 4102.1
20260831025614 64 141 0.0 0.0 0.00 0.15 0.15 99 4102.1
20260831025109 64 137 0.0 0.0 0.00 0.15 0.15 99 4101.7
20260831024606 63 215 1.0 2.0 0.00 0.15 0.15 99 4101.7
20260831024104 63 139 0.0 0.0 0.00 0.15 0.15 99 4101.4
20260831023603 63 150 0.0 0.0 0.00 0.15 0.15 99 4101.7
20260831023102 63 126 0.0 0.0 0.00 0.15 0.15 99 4102.1
20260831022557 63 234 0.0 1.0 0.00 0.15 0.15 99 4101.7
20260831022052 63 122 0.0 0.0 0.00 0.15 0.15 99 4101.4
20260831021551 63 105 1.0 1.0 0.00 0.15 0.15 99 4101.7
20260831021047 63 131 0.0 0.0 0.00 0.15 0.15 99 4101.4
20260831020542 63 128 0.0 0.0 0.00 0.15 0.15 99 4101.7
20260831020037 63 159 0.0 1.0 0.03 0.15 0.15 99 4101.7
20260831015533 63 140 0.0 0.0 0.02 0.14 0.14 99 4102.1
20260831015027 63 135 0.0 0.0 0.02 0.14 0.14 99 4101.7
20260831014522 64 160 0.0 0.0 0.02 0.14 0.14 99 4101.7
20260831014018 64 170 0.0 0.0 0.02 0.14 0.14 99 4101.7
20260831013514 64 145 0.0 0.0 0.02 0.14 0.14 99 4101.7
20260831013008 64 144 0.0 0.0 0.02 0.14 0.14 99 4101.7
20260831012503 64 164 0.0 0.0 0.01 0.13 0.13 99 4101.7
20260831012002 64 154 0.0 0.0 0.00 0.12 0.12 99 4101.7
20260831011457 64 144 0.0 1.0 0.00 0.12 0.12 99 4101.7
20260831010953 64 156 0.0 0.0 0.00 0.12 0.12 99 4101.7
20260831010453 64 143 0.0 0.0 0.00 0.12 0.12 99 4101.4
20260831005949 64 133 0.0 0.0 0.00 0.12 0.12 99 4101.4
20260831005445 64 143 0.0 0.0 0.00 0.12 0.12 99 4101.1
20260831004944 64 85 2.0 3.0 0.00 0.12 0.12 99 4101.1
20260831004440 64 157 0.0 1.0 0.00 0.12 0.12 99 4101.1
20260831003936 64 143 0.0 0.0 0.00 0.12 0.12 99 4101.4
20260831003432 64 165 0.0 0.0 0.00 0.12 0.12 99 4101.1
20260831002931 64 160 0.0 0.0 0.00 0.12 0.12 99 4101.4
20260831002430 64 135 0.0 0.0 0.00 0.12 0.12 99 4101.1
20260831001926 64 119 0.0 2.0 0.00 0.12 0.12 99 4101.1
20260831001421 64 125 0.0 0.0 0.00 0.12 0.12 99 4101.1
20260831000919 64 117 0.0 0.0 0.00 0.12 0.12 99 4101.1
20260831000414 64 115 0.0 0.0 0.00 0.12 0.12 99 4101.1
20260830235912 64 162 0.0 0.0 0.00 0.12 0.12 99 4100.7
20260830235407 64 122 0.0 0.0 0.00 0.12 0.12 99 4101.1
20260830234903 65 152 1.0 1.0 0.00 0.12 0.12 99 4101.1
20260830234357 65 134 0.0 0.0 0.00 0.12 0.12 99 4101.1
20260830233854 65 178 2.0 2.0 0.00 0.12 0.12 99 4101.4
20260830233349 65 86 0.0 1.0 0.00 0.12 0.12 99 4101.4
20260830232844 66 104 0.0 0.0 0.00 0.12 0.12 99 4101.1
20260830232340 66 111 0.0 0.0 0.00 0.12 0.12 99 4101.1
20260830231836 66 84 1.0 1.0 0.00 0.12 0.12 99 4101.1
20260830231331 66 120 0.0 0.0 0.00 0.12 0.12 99 4101.7
20260830230830 66 116 0.0 1.0 0.00 0.12 0.12 99 4101.4
20260830230325 66 116 1.0 1.0 0.00 0.12 0.12 99 4101.1
20260830225820 66 131 0.0 0.0 0.00 0.12 0.12 99 4101.4
20260830225315 66 140 0.0 0.0 0.00 0.12 0.12 99 4101.4
20260830224814 66 138 0.0 0.0 0.00 0.12 0.12 99 4101.1
20260830224308 66 116 0.0 0.0 0.00 0.12 0.12 99 4101.4
20260830223806 67 140 1.0 2.0 0.00 0.12 0.12 99 4101.4
20260830223301 67 78 0.0 1.0 0.00 0.12 0.12 99 4101.4
20260830222755 67 32 0.0 0.0 0.00 0.12 0.12 99 4101.4
20260830222251 68 137 0.0 1.0 0.00 0.12 0.12 99 4101.4
20260830221746 68 145 0.0 1.0 0.00 0.12 0.12 99 4101.4
20260830221243 68 138 0.0 0.0 0.00 0.12 0.12 99 4101.4
20260830220738 68 188 1.0 2.0 0.00 0.12 0.12 99 4101.4
20260830220237 68 203 0.0 0.0 0.00 0.12 0.12 99 4101.7
20260830215735 68 86 1.0 2.0 0.00 0.12 0.12 99 4101.4
20260830215230 68 154 3.0 6.0 0.00 0.12 0.12 99 4101.4
20260830214726 68 157 0.0 0.0 0.00 0.12 0.12 99 4101.7
20260830214225 68 170 0.0 1.0 0.00 0.12 0.12 99 4101.7
20260830213724 68 140 1.0 1.0 0.00 0.12 0.12 99 4101.4
20260830213220 68 136 0.0 0.0 0.00 0.12 0.12 99 4101.7
20260830212716 68 146 0.0 0.0 0.00 0.12 0.12 99 4101.7
20260830212211 68 150 0.0 1.0 0.00 0.12 0.12 99 4101.4
20260830211706 69 114 0.0 1.0 0.00 0.12 0.12 99 4101.4
20260830211205 69 148 0.0 0.0 0.00 0.12 0.12 99 4101.4
20260830210701 69 146 0.0 0.0 0.00 0.12 0.12 99 4101.7
20260830210200 69 197 1.0 1.0 0.00 0.12 0.12 99 4101.1
20260830205657 69 142 0.0 0.0 0.00 0.12 0.12 99 4101.4
20260830205153 68 128 0.0 0.0 0.00 0.12 0.12 99 4101.1
20260830204652 68 116 0.0 1.0 0.00 0.12 0.12 99 4101.1
20260830204151 68 137 0.0 0.0 0.00 0.12 0.12 99 4101.1
20260830203648 68 87 0.0 1.0 0.00 0.12 0.12 99 4101.1
20260830203143 68 143 0.0 1.0 0.00 0.12 0.12 99 4101.1
20260830202642 69 138 0.0 0.0 0.00 0.12 0.12 99 4101.1
20260830202137 69 140 0.0 1.0 0.00 0.12 0.12 99 4101.1
20260830201637 68 136 0.0 0.0 0.00 0.12 0.12 99 4101.1
20260830201132 68 141 0.0 0.0 0.00 0.12 0.12 99 4101.4
20260830200627 68 129 0.0 0.0 0.00 0.12 0.12 99 4101.1
20260830200122 68 131 0.0 1.0 0.00 0.12 0.12 99 4101.1
20260830195617 68 152 0.0 0.0 0.00 0.12 0.12 99 4101.1
20260830195115 68 167 0.0 0.0 0.00 0.12 0.12 99 4101.1
20260830194614 68 139 0.0 0.0 0.00 0.12 0.12 99 4101.1
20260830194109 68 156 0.0 0.0 0.00 0.12 0.12 99 4101.4
20260830193608 68 177 1.0 1.0 0.00 0.12 0.12 99 4101.4
20260830193058 68 131 0.0 0.0 0.00 0.12 0.12 99 4101.4
20260830192554 68 129 0.0 0.0 0.00 0.12 0.12 99 4101.4
20260830192053 67 140 0.0 0.0 0.00 0.12 0.12 99 4101.1
20260830191548 67 120 0.0 0.0 0.00 0.12 0.12 99 4101.1
20260830191044 67 112 1.0 1.0 0.00 0.12 0.12 99 4101.4
20260830190539 67 134 0.0 0.0 0.00 0.12 0.12 99 4101.4
20260830190034 67 127 1.0 1.0 0.00 0.12 0.12 99 4101.4
20260830185528 67 136 1.0 1.0 0.00 0.12 0.12 99 4101.4
20260830185024 67 144 0.0 0.0 0.00 0.12 0.12 99 4101.4
20260830184522 66 137 0.0 0.0 0.00 0.12 0.12 99 4101.4
20260830184011 66 131 0.0 0.0 0.00 0.12 0.12 99 4101.1
20260830183506 67 128 0.0 0.0 0.00 0.12 0.12 99 4101.4
20260830183002 67 140 0.0 0.0 0.00 0.12 0.12 99 4101.7
20260830182457 66 138 0.0 0.0 0.00 0.12 0.12 99 4101.4
20260830181953 67 122 1.0 1.0 0.00 0.12 0.12 99 4101.4
20260830181449 66 138 0.0 0.0 0.00 0.12 0.12 99 4101.4
20260830180943 66 150 0.0 1.0 0.00 0.12 0.12 99 4101.7
20260830180442 66 138 0.0 0.0 0.00 0.12 0.12 99 4101.4
20260830175941 67 187 1.0 2.0 0.00 0.12 0.12 99 4101.4
20260830175435 66 165 0.0 0.0 0.00 0.12 0.12 99 4101.4
20260830174930 66 140 0.0 0.0 0.00 0.12 0.12 99 4101.4
20260830174426 66 126 0.0 0.0 0.00 0.12 0.12 99 4101.1
20260830173921 66 157 1.0 2.0 0.00 0.12 0.12 99 4101.1
20260830173416 66 144 0.0 0.0 0.00 0.12 0.12 99 4101.4
20260830172912 66 136 0.0 0.0 0.00 0.12 0.12 99 4101.4
20260830172409 66 132 0.0 0.0 0.00 0.12 0.12 99 4101.1
20260830171904 66 158 0.0 1.0 0.00 0.12 0.12 99 4101.1
20260830171359 66 137 0.0 0.0 0.00 0.12 0.12 99 4101.4
20260830170854 66 143 0.0 0.0 0.00 0.12 0.12 99 4101.4
20260830170354 67 136 0.0 0.0 0.00 0.12 0.12 99 4101.4
20260830165852 67 207 0.0 0.0 0.00 0.12 0.12 99 4101.4
20260830165348 67 173 0.0 0.0 0.00 0.12 0.12 99 4101.4
20260830164844 67 141 2.0 2.0 0.00 0.12 0.12 99 4101.1
20260830164340 68 144 0.0 1.0 0.00 0.12 0.12 99 4101.1
20260830163836 67 143 0.0 1.0 0.00 0.12 0.12 99 4101.4
20260830163332 66 110 2.0 3.0 0.00 0.12 0.12 99 4101.4
20260830162831 66 178 0.0 1.0 0.00 0.12 0.12 99 4101.4
20260830162328 66 116 1.0 2.0 0.00 0.12 0.12 99 4101.4
20260830161828 65 151 0.0 0.0 0.00 0.12 0.12 99 4101.4
20260830161327 65 128 0.0 0.0 0.00 0.12 0.12 99 4101.7
20260830160823 65 129 0.0 0.0 0.00 0.12 0.12 99 4101.7
20260830160318 65 118 0.0 0.0 0.00 0.12 0.12 99 4101.7
20260830155813 65 137 0.0 0.0 0.01 0.12 0.12 99 4102.1
20260830155310 65 140 0.0 0.0 0.00 0.11 0.11 99 4101.7
20260830154805 65 137 0.0 0.0 0.00 0.11 0.11 99 4101.7
20260830154301 65 149 0.0 0.0 0.00 0.11 0.11 99 4101.7
20260830153757 65 158 0.0 0.0 0.00 0.11 0.11 99 4101.7
20260830153253 65 124 0.0 0.0 0.00 0.11 0.11 99 4101.7
20260830152750 65 145 0.0 0.0 0.00 0.11 0.11 99 4102.1
20260830152246 65 138 0.0 0.0 0.00 0.11 0.11 99 4101.7
20260830151745 65 134 0.0 0.0 0.00 0.11 0.11 99 4101.4
20260830151244 65 138 0.0 0.0 0.00 0.11 0.11 99 4101.4
20260830150740 65 138 0.0 0.0 0.00 0.11 0.11 99 4101.7
20260830150239 65 127 0.0 0.0 0.00 0.11 0.11 99 4101.7
20260830145734 64 138 0.0 0.0 0.00 0.11 0.11 99 4101.7
20260830145229 64 139 0.0 0.0 0.00 0.11 0.11 99 4101.4
20260830144724 64 128 0.0 0.0 0.00 0.11 0.11 99 4101.4
20260830144220 64 118 0.0 0.0 0.00 0.11 0.11 99 4101.4
20260830143716 64 112 1.0 1.0 0.00 0.11 0.11 99 4101.7
20260830143214 64 138 0.0 0.0 0.00 0.11 0.11 99 4101.7
20260830142710 64 137 0.0 0.0 0.00 0.11 0.11 99 4101.4
20260830142204 64 134 0.0 0.0 0.00 0.11 0.11 99 4101.4
20260830141659 64 113 1.0 1.0 0.00 0.11 0.11 99 4101.4
20260830141154 64 133 0.0 0.0 0.00 0.11 0.11 99 4101.4
20260830140650 64 143 1.0 2.0 0.00 0.11 0.11 99 4101.4